Miscellaneous Local Product
Issued by NWS North Platte, NE

Home | Current Version | Previous Version | Text Only | Print | Product List | Glossary On
Versions: 1 2 3 4 5 6 7 8 9 10 11 12 13 14 15 16 17 18 19 20 21 22 23 24 25 26 27 28 29 30 31 32 33 34 35 36 37 38 39 40 41 42 43 44 45 46 47 48 49 50
000
AXUS43 KLBF 032310
MISLBF


WESTERN AND NORTH CENTRAL NEBRASKA HOURLY WEATHER ROUNDUP
NATIONAL WEATHER SERVICE NORTH PLATTE NE
600 PM CDT FRI JUL 03 2015

***STATIONS NOT REPORTING VARIABLES SUCH AS SKY/WEATHER OR
PRESSURE ARE PROVIDED BY THE NEBRASKA DEPARTMENT OF
ROADS...RAWS...AND APRS NETWORKS...AND ARE NOT UNDER
NATIONAL WEATHER SERVICE QUALITY CONTROL***

...OBSERVATIONS IN AND NEAR THE EASTERN PANHANDLE OF NEBRASKA...

CITY           SKY/WX    TMP DP  RH WIND       PRES   REMARKS
PINE RIDGE     MOSUNNY   82  56  40 E5        30.00F
CHADRON        SUNNY     84  54  35 SE6       29.98F
ALLIANCE       SUNNY     81  57  43 SE7       30.03F
SIDNEY         PTSUNNY   84  56  38 E10       30.06F
WHITECLAY        N/A     83  55  37 E5          N/A
CRESCENT LAKE    N/A     85  55  35 N5          N/A
BIG SPRINGS      N/A     84  58  41 E9          N/A
$$

...OBSERVATIONS IN NORTH CENTRAL NEBRASKA...

CITY           SKY/WX    TMP DP  RH WIND       PRES   REMARKS
VALENTINE      CLOUDY    83  58  42 E3        29.99F
THEDFORD       MOSUNNY   82  59  45 CALM      30.01F HAZE
AINSWORTH      SUNNY     81  57  44 N5        30.00F
O`NEILL        SUNNY     80  63  56 NW5       29.98F
ORD            SUNNY     82  60  47 E7        29.96F
BROKEN BOW     MOSUNNY   82  61  48 VRB5      29.99F
VALENTINE NWR    N/A     83  60  45 SW3         N/A
SPRINGVIEW       N/A     83  63  50 CALM        N/A
HALSEY           N/A     83  56  39 CALM        N/A
BREWSTER         N/A     87  58  38 CALM        N/A
ROSE             N/A     91  70  50 E3          N/A  HX  97
NEWPORT          N/A     81  62  51 NE5         N/A
SARGENT          N/A     82  57  42 CALM        N/A
CHAMBERS         N/A     86  60  41 CALM        N/A
EWING            N/A     81  67  62 CALM        N/A
$$

...OBSERVATIONS IN SOUTHWEST NEBRASKA AND FAR NORTHEAST COLORADO...

CITY           SKY/WX    TMP DP  RH WIND       PRES   REMARKS
WRAY           FAIR      88  51  27 CALM      30.01F
HOLYOKE        FAIR      88  54  31 E7        30.02F
IMPERIAL       SUNNY     88  54  31 N6        30.00F
OGALLALA       SUNNY     83  57  41 E5        30.01F
NORTH PLATTE   MOSUNNY   83  57  41 SE8       29.99F
MCCOOK         SUNNY     83  62  49 E9        29.98F
LEXINGTON      SUNNY     82  59  45 CALM      29.99F
PAXTON           N/A     83  59  44 CALM        N/A
GOTHENBURG       N/A     82  56  41 SE3         N/A
CALLAWAY         N/A     84  65  52 CALM        N/A
$$

...NORTH PLATTE AREA...

CITY           SKY/WX    TMP DP  RH WIND       PRES   REMARKS
AIRPORT        MOSUNNY   83  57  41 SE8       29.99F
DOWNTOWN         N/A     82  59  45 NE3         N/A
HILLCREST        N/A     82  58  44 NE5         N/A
$$

...SOME WEATHER OBSERVATIONS FROM AROUND THE REGION...

CITY           SKY/WX    TMP DP  RH WIND       PRES   REMARKS
DENVER         MOSUNNY   83  53  35 SE10      30.08F
LARAMIE        SUNNY     83  31  15 VRB7      30.17F
CHEYENNE       MOSUNNY   76  54  46 SE6       30.14F
SCOTTSBLUFF    SUNNY     85  56  37 E7        30.02F
RAPID CITY     SUNNY     80  60  50 SE10      29.98F
PIERRE         MOSUNNY   81  60  48 CALM      29.93F HAZE
WINNER         PTSUNNY   85  55  35 CALM      29.96S
SIOUX FALLS    PTSUNNY   78  63  59 N3        29.96F
OMAHA          SUNNY     79  51  37 N6        29.96F
GRAND ISLAND   MOSUNNY   77  61  57 E5        30.00F
KANSAS CITY    SUNNY     79  56  45 CALM      29.94F
WICHITA        MOSUNNY   84  63  49 NE13      29.93S
HAYS           SUNNY     84  57  39 E7        29.97F
LIBERAL        MOSUNNY   81  66  61 S7          N/A
GOODLAND       PTSUNNY   86  55  34 VRB5      30.01F
$$



USA.gov is the U.S. government's official web portal to all federal, state and local government web resources and services.